| time (UTC) | temp F | wind direction | speed MPH | gust MPH | rain 1hr in | rain 24hr in | rain mn in | humidity % | barometer mb |
| 20260906224557 | 81 | 172 | 6.0 | 18.0 | 0.00 | 0.00 | 0.00 | 89 | 1011.3 |
| 20260906223200 | 81 | 243 | 1.0 | 5.0 | 0.00 | 0.00 | 0.00 | 87 | 1011.1 |
| 20260906221555 | 81 | 187 | 0.0 | 0.0 | 0.00 | 0.00 | 0.00 | 89 | 1010.7 |
| 20260906220052 | 82 | 187 | 0.0 | 0.0 | 0.00 | 0.00 | 0.00 | 89 | 1011.1 |
| 20260906214605 | 83 | 94 | 0.0 | 0.0 | 0.00 | 0.00 | 0.00 | 86 | 1011.5 |
| 20260906213049 | 83 | 94 | 0.0 | 0.0 | 0.00 | 0.00 | 0.00 | 85 | 1011.7 |
| 20260906211551 | 84 | 94 | 0.0 | 0.0 | 0.00 | 0.00 | 0.00 | 84 | 1012.1 |
| 20260906210109 | 84 | 89 | 0.0 | 0.0 | 0.00 | 0.00 | 0.00 | 83 | 1012.3 |
| 20260906204553 | 85 | 101 | 0.0 | 1.0 | 0.00 | 0.00 | 0.00 | 83 | 1012.3 |
| 20260906203045 | 84 | 81 | 0.0 | 3.0 | 0.00 | 0.00 | 0.00 | 82 | 1012.6 |
| 20260906201548 | 84 | 146 | 1.0 | 4.0 | 0.00 | 0.00 | 0.00 | 83 | 1012.7 |
| 20260906200041 | 84 | 133 | 1.0 | 6.0 | 0.00 | 0.00 | 0.00 | 82 | 1012.5 |
| 20260906194537 | 83 | 139 | 2.0 | 4.0 | 0.00 | 0.00 | 0.00 | 84 | 1012.4 |
| 20260906193036 | 83 | 150 | 2.0 | 4.0 | 0.00 | 0.00 | 0.00 | 84 | 1012.3 |
| 20260906191531 | 82 | 155 | 2.0 | 5.0 | 0.00 | 0.00 | 0.00 | 85 | 1012.4 |
| 20260906190029 | 81 | 153 | 3.0 | 6.0 | 0.00 | 0.00 | 0.00 | 86 | 1012.6 |
| 20260906184526 | 81 | 146 | 0.0 | 2.0 | 0.00 | 0.00 | 0.00 | 89 | 1012.6 |
| 20260906183025 | 80 | 94 | 0.0 | 3.0 | 0.00 | 0.00 | 0.00 | 89 | 1013.0 |
| 20260906181520 | 80 | 149 | 0.0 | 4.0 | 0.00 | 0.00 | 0.00 | 89 | 1013.3 |
| 20260906180016 | 79 | 108 | 0.0 | 3.0 | 0.00 | 0.00 | 0.00 | 90 | 1013.5 |
| 20260906174517 | 78 | 169 | 1.0 | 4.0 | 0.00 | 0.00 | 0.00 | 90 | 1013.6 |
| 20260906173012 | 77 | 151 | 2.0 | 5.0 | 0.00 | 0.00 | 0.00 | 90 | 1013.7 |
| 20260906171508 | 76 | 161 | 1.0 | 4.0 | 0.00 | 0.00 | 0.00 | 91 | 1013.9 |
| 20260906170006 | 76 | 123 | 1.0 | 5.0 | 0.00 | 0.05 | 0.00 | 92 | 1014.2 |
| 20260906164504 | 75 | 127 | 1.0 | 4.0 | 0.00 | 0.05 | 0.00 | 92 | 1014.5 |
| 20260906163002 | 75 | 117 | 0.0 | 4.0 | 0.00 | 0.05 | 0.00 | 93 | 1014.5 |
| 20260906161504 | 75 | 107 | 0.0 | 5.0 | 0.00 | 0.05 | 0.00 | 93 | 1014.6 |
| 20260906160101 | 75 | 141 | 0.0 | 3.0 | 0.00 | 0.05 | 0.00 | 92 | 1014.6 |
| 20260906154558 | 74 | 100 | 0.0 | 3.0 | 0.00 | 0.10 | 0.00 | 93 | 1014.6 |
| 20260906153114 | 74 | 108 | 0.0 | 3.0 | 0.00 | 0.10 | 0.00 | 93 | 1014.6 |
| 20260906151600 | 74 | 140 | 0.0 | 5.0 | 0.00 | 0.10 | 0.00 | 94 | 1014.7 |
| 20260906150050 | 73 | 135 | 0.0 | 3.0 | 0.00 | 0.10 | 0.00 | 94 | 1014.7 |
| 20260906144553 | 73 | 125 | 0.0 | 4.0 | 0.00 | 0.10 | 0.00 | 94 | 1014.7 |
| 20260906143050 | 72 | 146 | 1.0 | 5.0 | 0.00 | 0.10 | 0.00 | 94 | 1014.8 |
| 20260906141546 | 72 | 80 | 1.0 | 4.0 | 0.00 | 0.10 | 0.00 | 94 | 1014.9 |
| 20260906140040 | 71 | 145 | 0.0 | 2.0 | 0.00 | 0.10 | 0.00 | 95 | 1014.9 |
| 20260906134554 | 71 | 124 | 0.0 | 1.0 | 0.00 | 0.10 | 0.00 | 96 | 1015.0 |
| 20260906133048 | 70 | 131 | 0.0 | 1.0 | 0.00 | 0.10 | 0.00 | 96 | 1015.1 |
| 20260906131537 | 69 | 103 | 0.0 | 1.0 | 0.00 | 0.10 | 0.00 | 97 | 1015.0 |
| 20260906130035 | 68 | 146 | 0.0 | 1.0 | 0.00 | 0.10 | 0.00 | 97 | 1015.0 |
| 20260906124535 | 68 | 138 | 0.0 | 0.0 | 0.00 | 0.10 | 0.00 | 97 | 1014.9 |
| 20260906123050 | 68 | 96 | 0.0 | 1.0 | 0.00 | 0.10 | 0.00 | 97 | 1014.8 |
| 20260906121536 | 67 | 142 | 0.0 | 1.0 | 0.00 | 0.10 | 0.00 | 97 | 1014.8 |
| 20260906120032 | 68 | 136 | 0.0 | 1.0 | 0.00 | 0.10 | 0.00 | 97 | 1014.8 |
| 20260906114532 | 68 | 139 | 0.0 | 0.0 | 0.00 | 0.10 | 0.00 | 96 | 1014.6 |
| 20260906113034 | 68 | 150 | 0.0 | 0.0 | 0.00 | 0.10 | 0.00 | 96 | 1014.7 |
| 20260906111533 | 68 | 131 | 0.0 | 3.0 | 0.00 | 0.10 | 0.00 | 96 | 1014.7 |
| 20260906110031 | 68 | 149 | 0.0 | 1.0 | 0.00 | 0.10 | 0.00 | 97 | 1014.7 |
| 20260906104529 | 68 | 155 | 0.0 | 1.0 | 0.00 | 0.10 | 0.00 | 96 | 1014.8 |
| 20260906103028 | 68 | 146 | 0.0 | 0.0 | 0.00 | 0.10 | 0.00 | 96 | 1014.5 |
| 20260906101531 | 68 | 141 | 0.0 | 0.0 | 0.00 | 0.10 | 0.00 | 97 | 1014.5 |
| 20260906100031 | 68 | 105 | 0.0 | 0.0 | 0.00 | 0.10 | 0.00 | 97 | 1014.7 |
| 20260906094527 | 68 | 105 | 0.0 | 0.0 | 0.00 | 0.10 | 0.00 | 97 | 1014.7 |
| 20260906093036 | 67 | 138 | 0.0 | 1.0 | 0.00 | 0.10 | 0.00 | 98 | 1014.7 |
| 20260906091526 | 67 | 26 | 0.0 | 0.0 | 0.00 | 0.10 | 0.00 | 97 | 1014.5 |
| 20260906090039 | 67 | 26 | 0.0 | 0.0 | 0.00 | 0.10 | 0.00 | 97 | 1014.4 |
| 20260906084525 | 67 | 26 | 0.0 | 0.0 | 0.00 | 0.10 | 0.00 | 97 | 1014.5 |
| 20260906083030 | 67 | 26 | 0.0 | 0.0 | 0.00 | 0.10 | 0.00 | 97 | 1014.5 |
| 20260906081523 | 67 | 35 | 0.0 | 0.0 | 0.00 | 0.10 | 0.00 | 96 | 1014.5 |
| 20260906080021 | 68 | 130 | 0.0 | 0.0 | 0.00 | 0.10 | 0.00 | 96 | 1014.4 |
| 20260906074521 | 68 | 130 | 0.0 | 0.0 | 0.00 | 0.10 | 0.00 | 96 | 1014.5 |
| 20260906073019 | 68 | 130 | 0.0 | 0.0 | 0.00 | 0.10 | 0.00 | 95 | 1014.6 |
| 20260906071517 | 69 | 133 | 0.0 | 0.0 | 0.00 | 0.10 | 0.00 | 95 | 1014.6 |
| 20260906070016 | 69 | 133 | 0.0 | 0.0 | 0.00 | 0.10 | 0.00 | 95 | 1014.7 |
| 20260906064516 | 69 | 133 | 0.0 | 0.0 | 0.00 | 0.10 | 0.00 | 95 | 1014.7 |
| 20260906063024 | 69 | 133 | 0.0 | 0.0 | 0.00 | 0.10 | 0.00 | 96 | 1014.8 |
| 20260906061514 | 69 | 133 | 0.0 | 0.0 | 0.00 | 0.10 | 0.00 | 95 | 1014.8 |
| 20260906060011 | 69 | 134 | 0.0 | 0.0 | 0.00 | 0.10 | 0.00 | 95 | 1014.7 |
| 20260906054509 | 69 | 133 | 0.0 | 1.0 | 0.00 | 0.10 | 0.00 | 95 | 1014.4 |
| 20260906053008 | 70 | 153 | 0.0 | 3.0 | 0.00 | 0.10 | 0.00 | 94 | 1014.2 |
| 20260906051506 | 70 | 134 | 1.0 | 3.0 | 0.00 | 0.10 | 0.00 | 94 | 1014.1 |
| 20260906050002 | 70 | 108 | 0.0 | 1.0 | 0.00 | 0.10 | 0.10 | 93 | 1014.3 |
| 20260906044501 | 71 | 123 | 0.0 | 0.0 | 0.00 | 0.10 | 0.10 | 93 | 1014.4 |
| 20260906043001 | 71 | 123 | 0.0 | 0.0 | 0.00 | 0.10 | 0.10 | 91 | 1014.5 |
| 20260906041502 | 72 | 123 | 0.0 | 1.0 | 0.00 | 0.10 | 0.10 | 91 | 1014.4 |
| 20260906040100 | 72 | 123 | 0.0 | 1.0 | 0.00 | 0.10 | 0.10 | 90 | 1014.3 |
| 20260906034629 | 72 | 123 | 0.0 | 1.0 | 0.00 | 0.10 | 0.10 | 90 | 1014.3 |
| 20260906033102 | 72 | 123 | 0.0 | 2.0 | 0.00 | 0.10 | 0.10 | 90 | 1014.5 |
| 20260906031600 | 72 | 103 | 0.0 | 1.0 | 0.00 | 0.10 | 0.10 | 89 | 1014.7 |
| 20260906030058 | 72 | 109 | 0.0 | 1.0 | 0.00 | 0.10 | 0.10 | 91 | 1014.7 |
| 20260906024559 | 72 | 204 | 0.0 | 0.0 | 0.00 | 0.10 | 0.10 | 90 | 1014.6 |
| 20260906023057 | 73 | 204 | 0.0 | 1.0 | 0.00 | 0.10 | 0.10 | 90 | 1014.4 |
| 20260906021558 | 74 | 204 | 0.0 | 0.0 | 0.00 | 0.10 | 0.10 | 90 | 1014.0 |
| 20260906020100 | 75 | 204 | 0.0 | 1.0 | 0.00 | 0.10 | 0.10 | 88 | 1014.0 |
| 20260906014556 | 75 | 204 | 1.0 | 2.0 | 0.00 | 0.10 | 0.10 | 86 | 1014.4 |
| 20260906013105 | 75 | 65 | 0.0 | 0.0 | 0.00 | 0.10 | 0.10 | 86 | 1013.9 |
| 20260906011556 | 76 | 65 | 0.0 | 0.0 | 0.00 | 0.10 | 0.10 | 84 | 1013.5 |
| 20260906010055 | 78 | 113 | 0.0 | 0.0 | 0.00 | 0.10 | 0.10 | 80 | 1013.4 |
| 20260906004555 | 79 | 113 | 0.0 | 0.0 | 0.00 | 0.10 | 0.10 | 79 | 1013.0 |
| 20260906003053 | 80 | 216 | 1.0 | 3.0 | 0.00 | 0.10 | 0.10 | 77 | 1012.9 |
| 20260906001553 | 81 | 192 | 1.0 | 3.0 | 0.00 | 0.10 | 0.10 | 76 | 1012.7 |
| 20260906000104 | 83 | 220 | 2.0 | 4.0 | 0.00 | 0.10 | 0.10 | 73 | 1012.2 |
| 20260905234606 | 84 | 159 | 1.0 | 6.0 | 0.00 | 0.10 | 0.10 | 73 | 1011.6 |
| 20260905233049 | 83 | 155 | 0.0 | 3.0 | 0.00 | 0.10 | 0.10 | 74 | 1011.7 |
| 20260905231547 | 83 | 203 | 1.0 | 7.0 | 0.00 | 0.10 | 0.10 | 73 | 1011.9 |
| 20260905230046 | 84 | 208 | 3.0 | 7.0 | 0.00 | 0.10 | 0.10 | 71 | 1012.1 |